AirNav   ATP
 
 546 users online  

29LL Monroe County Ambulance Service Heliport
Waterloo, Illinois, USA

GOING TO WATERLOO?


FAA INFORMATION EFFECTIVE 09 NOVEMBER 2017

Location

FAA Identifier: 29LL
Lat/Long: 38-20-21.4000N / 090-09-49.9000W
38-20.356667N / 090-09.831667W
38.3392778 / -90.1638611
(estimated)
Elevation: 630 ft. / 192 m (estimated)
Variation: 00E (2000)
From city: 1 mile W of WATERLOO, IL
Time zone: UTC -6 (UTC -5 during Daylight Saving Time)
Zip code: 62298

Heliport Operations

Heliport use: Private use. Permission required prior to landing
Activation date: 02/2001
Control tower: no
ARTCC: KANSAS CITY CENTER
FSS: SAINT LOUIS FLIGHT SERVICE STATION
Attendance: CONTINUOUS
Segmented circle: no

Heliport Communications

WX ASOS at CPS (14 nm N): PHONE 618-332-0001

Nearby radio navigation aids

VOR radial/distance  VOR name  Freq  Var
CSXr160/26.5CARDINAL VOR/DME116.4500E
TOYr202/26.6TROY VORTAC116.0004E
STLr153/34.7ST LOUIS VORTAC117.4001E

 
NDB name  Hdg/Dist  Freq  Var  ID
ACORE204/11.935000ECP -.-. .--.
CIVIC MEMORIAL190/33.626301WCVM -.-. ...- --

Heliport Services

Runway Information

Helipad H1

Dimensions: 40 x 40 ft. / 12 x 12 m
Surface: asphalt
Latitude: 38-20.340000N
Longitude: 090-09.831667W
Elevation: 630.0 ft.
Traffic pattern: leftleft

Heliport Ownership and Management from official FAA records

Ownership: Privately-owned
Owner: MONROE COUNTY
100 S MAIN ST
WATERLOO, IL 62298
Phone 618-939-8681
Manager: CARLA HEISE
901 ILLINOIS AVE
WATERLOO, IL 62298
Phone 618-939-6175

Additional Remarks

A52-H1 MKD POWERLINE 270 FT & 235 FT S, BLDG 125 FT E & TREES 105 FT N.

Instrument Procedures

There are no published instrument procedures at 29LL.

Some nearby airports with instrument procedures:

KFES - Festus Memorial Airport (14 nm SW)
KCPS - St Louis Downtown Airport (14 nm N)
KBLV - Scott Air Force Base/MidAmerica Airport (20 nm NE)
KSAR - Sparta Community Airport-Hunter Field (25 nm SE)
KSTL - St Louis Lambert International Airport (26 nm N)
 
Loc | Ops | Rwys | IFR | FBO | Links
Com | Nav | Svcs | Stats | Notes


 
Area around 29LL (Monroe County Ambulance Service Heliport)
 
Road maps at: MapQuest Bing Google
 
Aerial photo
No photo
 
Sectional chart

 
Airport distance calculator
Flying to Monroe County Ambulance Service Heliport? Find the distance to fly.

From to 29LL

Sunrise and sunset
Times for 21-Nov-2017
 Local
(UTC-6)
 Zulu
(UTC)
Morning civil twilight06:2112:21
Sunrise06:5012:50
Sunset16:4422:44
Evening civil twilight17:1223:12

Current date and time
Zulu (UTC)  22-Nov-2017 05:38:05
Local (UTC-6)  21-Nov-2017 23:38:05
 
METAR
KCPS 
14nm N 
220453Z AUTO 33012KT 10SM CLR 00/M07 A3029 RMK AO2 SLP260 T00001072
KBLV 
19nm NE 
220456Z AUTO 33010KT 10SM CLR 00/M07 A3027 RMK AO2 VIS 2 1/4 RWY14R SLP256 T10031067 $
KSAR 
25nm SE 
220515Z AUTO 34007KT 10SM CLR 00/M05 A3029 RMK AO2 T00001051
KSTL 
26nm N 
220451Z 33010KT 10SM CLR 00/M07 A3029 RMK AO2 SLP263 T00001067
TAF
KCPS 
14nm N 
211725Z 2118/2218 29011G18KT P6SM SCT140 FM212000 33012G22KT P6SM BKN140 FM220400 34010KT P6SM SKC FM220900 34006KT P6SM FEW250
KBLV 
19nm NE 
220000Z 2200/2306 35015G20KT 9999 FEW080 SCT150 510102 QNH3014INS BECMG 2202/2203 34012KT 9999 SKC QNH3020INS BECMG 2211/2212 01006KT 9999 FEW250 QNH3017INS WND 18006KT AFT 2300 TX07/2200Z TNM01/2212Z
NOTAMs
Click for the latest NOTAMs
NOTAMs are issued by the DoD/FAA and will open in a separate window not controlled by AirNav.

 

 
 

Would you like to see your business listed on this page?

 If your business provides an interesting product or service to pilots, flight crews, aircraft, or users of the Monroe County Ambulance Service Heliport, you should consider listing it here.  To start the listing process, click on the button below
 
Add a business
 

Other Pages about Monroe County Ambulance Service Heliport

Update a link
 
Copyright © AirNav, LLC. All rights reserved. Privacy Policy  Contact